Preview of NWS' New Version of Forecast
This preview is not operational and should not be used for support decisions.
Latest weather observations around

Santa Ana, John Wayne Airport-Orange County Airport (KSNA)

Using English Units (Switch to International System of Units)
Date/ Time (PDT) Wind (mph) Vis. (mi) Weather Sky Cond. Temp (°F) Rel. Humidity Wind Chill (°F) Heat Index (°F) Pressure Precip. (in)
Air Dwpt 6 hour Altimeter (inHg) Sea level (inHg) 1 hr 3 hr 6 hr
Max Min
Oct 15 13:53 NE 23 10 Clear and Windy CLR 79 12     8%   77 30.01 30      
Oct 15 12:53 NE 22 10 Clear and Windy CLR 79 15     9%   77 30.03 30.03      
Oct 15 11:53   10 Clear CLR 76 13     9%   74 30.05 30.04      
Oct 15 10:53 NNE 16 10 Partly Cloudy FEW095 SCT300 76 13     9%   74 30.06 30.05      
Oct 15 09:53 NNE 22 10 Partly Cloudy and Windy FEW095 SCT300 73 14     10%   71 30.06 30.05      
Oct 15 08:53   10 Partly Cloudy FEW095 SCT300 70 14     11%     30.05 30.04      
Oct 15 07:53 NE 22 10 Partly Cloudy and Windy FEW095 SCT300 70 14     11%     30.04 30.03      
Oct 15 06:53 NE 23 10 Mostly Clear and Windy FEW095 70 18     14%     30.03 30.02      
Oct 15 05:53 NE 18 10 Partly Cloudy SCT090 71 21     15%   69 30.01 30      
Oct 15 04:53   10 Clear CLR 72        %     29.98 29.98      
Oct 15 03:53 SSW 5 10 Partly Cloudy SCT110 63 57     81%     29.99 29.98      
Oct 15 02:53 Calm 10 Mostly Cloudy BKN100 63 58     84%     29.99 29.99      
Oct 15 01:53 Calm 10 Cloudy OVC080 64 57     78%     30 29.99      
Oct 15 00:53 Calm 10 Clear CLR 64 57     78%     29.99 29.99      
Oct 14 23:53 Calm 10 Clear CLR 64 57     78%     29.99 29.98      
Oct 14 22:53 3 10 Clear CLR 65 57     76%     29.98 29.98      
Oct 14 21:53 Calm 10 Clear   65 58     78%     29.97 29.97      
Oct 14 20:53 Calm 10 Clear CLR 66 57     73%     29.96 29.95      
Oct 14 19:53 WSW 3 10 Clear CLR 66 56     70%     29.94 29.94      
Oct 14 18:53 WSW 5 10 Clear CLR 67 56     68%     29.93 29.93      
Oct 14 17:53 W 5 10 Mostly Clear FEW055 69 57     65%     29.91 29.91      
Oct 14 16:53 WSW 8 10 Mostly Clear FEW055 70 57     63%     29.91 29.91      
Oct 14 15:53 7 10 Mostly Clear FEW033 71 56     59%   71 29.92 29.91      
Oct 14 14:53 SW 9 10 Mostly Cloudy BKN033 72 57     59%   72 29.92 29.91      
Oct 14 13:53 SSW 7 10 Mostly Cloudy FEW028 BKN039 72 58     61%   72 29.93 29.92      
Oct 14 12:53 SW 5 10 Mostly Cloudy FEW026 BKN037 70 59     68%     29.95 29.94      
Oct 14 11:53 WSW 5 10 Mostly Cloudy SCT023 BKN033 BKN040 69 58     68%     29.96 29.96      
Oct 14 10:53 Calm 10 Cloudy FEW027 BKN032 OVC043 68 58     70%     29.97 29.96      
Oct 14 10:46 Calm 10 Cloudy FEW027 BKN032 OVC043 67 58     73%     29.97        
Oct 14 10:17 Calm 10 Cloudy FEW018 BKN024 OVC040 67 58     73%     29.97        
Oct 14 09:53 Calm 10 Cloudy FEW016 SCT024 OVC043 67 58     73%     29.97 29.96      
Oct 14 09:41 Calm 10 Cloudy FEW016 SCT024 OVC043 66 58     75%     29.97        
Oct 14 08:53 Calm 10 Cloudy FEW014 BKN023 OVC042 65 58     78%     29.97 29.96      
Oct 14 08:20 Calm 10 Cloudy FEW018 BKN023 OVC042 65 58     78%     29.95        
Oct 14 07:53 Calm 10 Mostly Cloudy FEW019 FEW024 BKN042 64 58     81%     29.94 29.94      
Oct 14 07:35 Calm 10 Mostly Cloudy FEW019 SCT024 BKN042 63 58     84%     29.94        
Oct 14 06:53 Calm 10 Cloudy FEW020 BKN025 OVC042 63 57     81%     29.93 29.92      
Oct 14 06:32 Calm 10 Mostly Cloudy FEW021 BKN028 BKN042 63 57     81%     29.92        
Oct 14 05:53 Calm 10 Cloudy OVC041 63 57     81%     29.91 29.91      
Oct 14 04:53 Calm 10 Cloudy BKN033 OVC044 63 57     81%     29.9 29.89      
Oct 14 04:27 E 3 10 Cloudy OVC031 62 57     84%     29.9        
Oct 14 03:53 Calm 10 Cloudy OVC025 63 57     81%     29.9 29.89      
Oct 14 02:53 Calm 10 Cloudy BKN026 OVC035 61 57     87%     29.9 29.9      
Oct 14 02:49 Calm 10 Cloudy BKN027 OVC035 61 55     82%     29.9        
Oct 14 01:53 Calm 10 Mostly Cloudy BKN033 61 57     87%     29.9 29.9      
Oct 14 00:53 Calm 10 Partly Cloudy SCT036 62 57     84%     29.9 29.9      
Oct 13 23:53 Calm 10 Clear CLR 62 56     80%     29.9 29.9      
Oct 13 22:53 Calm 10 Mostly Cloudy BKN047 BKN080 64 56     75%     29.91 29.91     0
Oct 13 21:53 ESE 3 10 Mostly Cloudy BKN048 64 56     75%     29.91 29.91      
Oct 13 20:53 Calm 10 Cloudy OVC050 65 55     70%     29.9 29.9      
Oct 13 19:53 ESE 3 10 Mostly Cloudy BKN050 64 56     75%     29.89 29.88   0  
Oct 13 18:53 Calm 10 Mostly Cloudy SCT055 BKN120 64 55     73%     29.88 29.88 0    
Oct 13 17:53 SE 3 10 Light Rain FEW010 SCT055 BKN110 64 57     78%     29.87 29.86 0    
Oct 13 16:53 3 10 Light Rain FEW010 SCT055 BKN100 64 56     75%     29.87 29.87 0   0
Oct 13 15:53 Calm 10 Light Rain FEW014 BKN050 BKN110 66 53     63%     29.88 29.88 0    
Oct 13 14:53 WNW 3 10 Mostly Cloudy SCT045 BKN055 BKN095 65 55     70%     29.86 29.86 0    
Oct 13 13:53 WNW 3 10 Light Rain FEW011 BKN030 OVC042 65 56     73%     29.87 29.87 0 0  
Oct 13 13:46 WNW 3 10 Light Rain FEW011 BKN030 OVC042 65 56     73%     29.88   0    
Oct 13 12:53 WSW 3 8 Light Rain FEW011 BKN017 OVC027 64 57     78%     29.89 29.88 0    
Oct 13 11:53 W 5 7 Light Rain SCT011 BKN017 OVC027 63 59     87%     29.91 29.91 0    
Oct 13 11:06 WNW 3 7 Light Rain SCT011 BKN017 OVC027 64 59     84%     29.92   0    
Oct 13 10:53 Calm 6 Light Rain BKN013 BKN017 OVC027 64 59     84%     29.92 29.92 0   0
Oct 13 10:36 N 3 5 Light Rain BKN012 BKN021 OVC030 64 59     84%     29.92   0    
Oct 13 10:12 NNW 3 8 Light Rain OVC030 64 58     81%     29.92   0    
Oct 13 09:53 N 3 9 Light Rain OVC029 64 58     81%     29.92 29.92 0    
Oct 13 09:10 NW 3 10 Cloudy FEW018 BKN027 OVC035 64 57     78%     29.91        
Oct 13 08:53 N 8 10 Cloudy SCT020 OVC035 65 57     76%     29.91 29.91      
Oct 13 08:19 Calm 10 Cloudy OVC033 66 57     73%     29.9        
Oct 13 07:53 Calm 10 Cloudy BKN027 OVC040 65 57     76%     29.89 29.88   0  
Oct 13 06:53 SW 3 10 Cloudy OVC023 64 59     84%     29.86 29.86 0    
Oct 13 05:53 SSW 3 8 Cloudy FEW010 OVC018 64 60     87%     29.86 29.85      
Oct 13 03:01 SSE 5 10 Cloudy SCT007 BKN011 OVC019 63 60     90%     29.84        
Oct 13 02:53 SSE 5 10 Cloudy BKN007 BKN019 OVC110 63 60     90%     29.84 29.83 0    
Oct 13 02:44 S 7 10 Mostly Cloudy SCT007 BKN110 63 60     90%     29.84   0    
Notice The following observation data may not be complete
Oct 13 02:20   10 Partly Cloudy SCT015          %         0    
Oct 13 01:40 S 5 6 Light Rain and Fog/Mist BKN010 BKN024 OVC090 63 59     87%     29.84   0    
Oct 12 23:53 Calm 10 Light Rain BKN070 OVC090 63 59     87%     29.86 29.85 0    
Oct 12 22:16 WNW 3 9 Light Rain FEW021 SCT036 OVC060 62 58     86%     29.86   0    
Oct 12 22:05 SW 7 2.5 Thunderstorms and Heavy Rain and Fog/Mist FEW021 SCT036 OVC060 63 59     87%     29.87   0    
Oct 12 20:27 SSW 10 10 Thunderstorms and Rain FEW055 SCT090 BKN110 66 58     75%     29.82   0    
Oct 12 20:20 SSW 6 10 Mostly Cloudy FEW020 SCT085 BKN110 66 59     78%     29.81        
Oct 12 14:53 WSW 10 10 Partly Cloudy FEW055 SCT100 75 56     52%   75 29.72 29.72      
Oct 12 05:53 Calm 10 Clear CLR 62 50     65%     29.78 29.78      
Oct 12 03:53 Calm 10 Clear CLR 62 51     67%     29.78 29.77      
Oct 11 22:53 N 3 10 Clear CLR 66 51     59%     29.81 29.81      
Oct 11 19:53 Calm 10 Mostly Clear FEW250 68 53     59%     29.81 29.8      
Oct 11 18:53 WSW 3 10 Clear CLR 68 51     55%     29.78 29.78      
Oct 11 14:53 SW 9 10 Mostly Clear FEW050 73 50     44%   72 29.8 29.79      
Oct 11 09:53 W 5 10 Mostly Cloudy BKN065 68 51     55%     29.87 29.86      
Oct 10 23:53 Calm 10 Partly Cloudy SCT065 66 52     61%     29.86 29.85      
Oct 10 22:53 Calm 10 Mostly Cloudy FEW021 BKN038 BKN055 66 52     61%     29.86 29.85      
Oct 10 08:53 Calm 10 Partly Cloudy FEW033 SCT042 67 55     66%     29.85 29.85      
Oct 10 04:15 Calm 10 Mostly Cloudy BKN022 BKN029 64 56     75%     29.84        
Oct 10 04:07 Calm 10 Partly Cloudy SCT022 SCT029 64 56     75%     29.84        
Oct 10 01:53 Calm 10 Clear CLR 66 55     68%     29.86 29.85      
Oct 09 23:53 Calm 10 Cloudy OVC021 66 56     70%     29.86 29.85      
Oct 09 14:53 SSW 10 10 Mostly Clear FEW030 72 56     57%   72 29.81 29.81      
Oct 09 05:53 E 7 10 Cloudy OVC023 66 55     68%     29.84 29.84      
Oct 09 02:53 E 5 10 Cloudy OVC020 66 57     73%     29.84 29.84      
Oct 08 17:53 SSW 8 10 Mostly Clear FEW025 69 58     68%     29.78 29.78      
Oct 08 14:53 SW 8 10 Mostly Clear FEW025 72 58     61%   72 29.79 29.79      
Oct 08 10:58 Calm 10 Partly Cloudy SCT028 71 57     61%   71 29.85        
Oct 08 10:21 3 10 Partly Cloudy SCT025 69 56     63%     29.86        
Oct 08 08:53 E 3 10 Clear   67 57     71%     29.85 29.85      
Oct 08 04:53 ESE 8 10 Cloudy OVC023 65 57     76%     29.81 29.81      
Oct 08 02:53 E 7 10 Cloudy OVC023 66 59     78%     29.82 29.81      
Oct 07 23:53 Calm 10 Clear CLR 66 60     81%     29.82 29.82      
Oct 07 21:53 S 5 8 Mostly Cloudy BKN012 67 60     79%     29.81 29.81      
Oct 07 21:08 S 3 8 Mostly Cloudy BKN012 67 60     79%     29.81        
Oct 07 20:53 Calm 8 Partly Cloudy FEW015 SCT250 67 60     79%     29.8 29.8      
Oct 07 14:53 S 11 10 Mostly Clear FEW019 FEW250 74 59     60%   74 29.76 29.76      
Oct 07 12:53 S 15 10 Mostly Clear FEW019 FEW250 75 60     60%   75 29.79 29.78      
Oct 07 11:53 SSW 11 10 Clear   74 59     60%   74 29.81 29.8      
Oct 07 08:53 Calm 10 Mostly Clear FEW021 68 58     70%     29.82 29.81      
Oct 07 02:53 ESE 3 10 Clear CLR 64 56     75%     29.76 29.75      
Oct 06 15:53 S 11 10 Partly Cloudy FEW020 FEW033 SCT210 73 58     59%   73 29.77 29.76      
Oct 06 13:53 SSW 16 10 Mostly Cloudy FEW022 SCT031 BKN038 BKN210 74 58     57%   74 29.78 29.78      
Oct 06 11:53 SSW 14 10 Mostly Cloudy FEW018 SCT024 BKN033 BKN210 BKN250 74 60     62%   74 29.84 29.83      
Oct 06 10:34 3 10 Mostly Cloudy SCT026 BKN031 72 59     64%   72 29.83        
Oct 06 10:23 5 10 Mostly Cloudy SCT026 BKN031 72 59     64%   72 29.84        
Oct 06 09:22 SSE 5 10 Mostly Cloudy BKN025 70 59     68%     29.85        
Oct 06 09:14 3 10 Partly Cloudy SCT025 71 59     66%   71 29.85        
Oct 06 08:53 ESE 3 10 Cloudy OVC024 69 59     70%     29.85 29.84      
Oct 06 07:19 ESE 7 1.5 Haze OVC019 68 59     73%     29.84        
Oct 06 04:53 E 3 10 Cloudy OVC017 67 60     79%     29.83 29.82      
Oct 06 02:53 ESE 3 10 Cloudy OVC013 66 60     81%     29.84 29.84      
Oct 06 02:02 ESE 3 10 Mostly Cloudy BKN013 65 58     78%     29.86        
Oct 06 01:53 Calm 10 Partly Cloudy SCT011 65 58     78%     29.86 29.86      
Oct 05 22:53 SSE 3 10 Mostly Clear FEW015 67 61     81%     29.87 29.87      
Oct 05 15:53 WSW 6 10 Mostly Clear FEW024 FEW250 73 58     59%   73 29.89 29.89      
Oct 05 14:53 WSW 7 10 Mostly Clear FEW025 FEW035 FEW250 74 58     57%   74 29.91 29.91      
Oct 05 11:20 SSW 8 10 Partly Cloudy SCT032 73 58     59%   73 29.98        
Oct 05 10:53 SW 6 10 Mostly Cloudy BKN028 71 58     63%   71 29.99 29.98      
Oct 05 05:53 Calm 10 Mostly Cloudy FEW014 BKN022 66 59     78%     29.97 29.97      
Oct 05 05:49 Calm 10 Mostly Cloudy FEW014 BKN022 66 59     78%     29.97        
Oct 05 04:53 Calm 10 Clear CLR 66 59     78%     29.97 29.96      
Oct 05 03:53 Calm 10 Clear CLR 66 59     78%     29.96 29.96      
Oct 05 03:14 Calm 10 Partly Cloudy SCT024 66 59     78%     29.97        
Oct 05 02:53 WSW 3 10 Cloudy OVC022 67 59     76%     29.97 29.97      
Oct 05 01:53 SSW 5 10 Cloudy OVC021 66 60     81%     29.98 29.97      
Oct 05 00:53 SW 5 10 Mostly Cloudy BKN019 67 60     79%     29.97 29.97      
Oct 04 23:53 Calm 10 Mostly Cloudy BKN017 67 60     79%     29.97 29.97      
Oct 04 23:49 SW 5 10 Mostly Cloudy BKN019 66 61     83%     29.97        
Oct 04 22:53 SW 3 10 Partly Cloudy SCT014 67 61     81%     29.97 29.97      
Oct 04 21:53 WSW 3 10 Partly Cloudy SCT016 67 60     79%     29.96 29.96      
Oct 04 20:53 WSW 3 10 Mostly Clear FEW012 FEW035 68 61     78%     29.96 29.95      
Oct 04 19:53 WSW 6 10 Mostly Clear FEW013 FEW030 69 61     75%     29.95 29.94      
Oct 04 18:53 WSW 5 10 Mostly Clear FEW013 FEW028 FEW040 69 60     73%     29.94 29.93      
Oct 04 17:53 WSW 6 10 Mostly Clear FEW015 FEW035 72 60     66%   72 29.94 29.94      
Oct 04 16:53 SW 8 10 Mostly Clear FEW017 FEW035 73 60     64%   73 29.94 29.94      
Oct 04 15:53 SW 10 10 Partly Cloudy FEW023 SCT035 73 60     64%   73 29.95 29.94      
Oct 04 14:53 W 9 10 Partly Cloudy FEW014 SCT035 SCT050 75 59     57%   75 29.95 29.95      
Oct 04 13:53 SW 11 10 Partly Cloudy FEW014 SCT035 SCT055 75 59     57%   75 29.96 29.96      
Oct 04 12:53 SW 10 10 Partly Cloudy SCT035 SCT080 76 59     56%   76 29.98 29.97      
Oct 04 11:53 SW 10 10 Partly Cloudy SCT030 SCT080 75 61     62%   75 29.99 29.98      
Oct 04 10:53 WSW 5 10 Partly Cloudy SCT016 72 59     64%   72 30 29.99      
Oct 04 09:53 SSE 3 10 Partly Cloudy SCT016 71 61     70%   71 30 30      
Oct 04 09:24 NW 3 10 Partly Cloudy SCT016 69 60     73%     30.01        
Oct 04 09:03 5 10 Mostly Cloudy BKN015 70 61     73%     30        
Oct 04 08:53 Calm 10 Partly Cloudy FEW015 SCT070 SCT250 70 62     76%     30 30      
Oct 04 07:53 Calm 10 Partly Cloudy FEW015 SCT070 SCT250 67 62     84%     29.99 29.98      
Oct 04 06:53 Calm 10 Partly Cloudy FEW015 SCT070 SCT250 65 62     90%     29.97 29.96      
Oct 04 05:53 Calm 10 Partly Cloudy SCT250 65 61     87%     29.95 29.94      
Oct 04 04:53 Calm 10 Clear CLR 65 62     90%     29.94 29.93     0
Oct 04 03:53 Calm 10 Clear CLR 66 62     87%     29.92 29.92      
Oct 04 02:53 SE 3 10 Mostly Clear FEW070 66 62     87%     29.94 29.93      
Oct 04 01:53 E 5 10 Cloudy OVC065 67 62     84%     29.95 29.94   0  
Oct 04 00:53 E 3 10 Cloudy FEW035 OVC050 67 62     84%     29.95 29.94 0    
Oct 03 23:53 SW 7 10 Mostly Cloudy SCT035 BKN045 BKN070 68 63     84%     29.95 29.95 0    
May 14 17:53 W 8 10 Clear CLR 65 52     63%     29.94 29.94      
May 14 15:53 SW 9 10 Mostly Clear FEW029 67 51     57%     29.96 29.96      
May 14 08:53 3 10 Partly Cloudy SCT017 63 52     67%     29.99 29.99      
May 13 20:53 W 7 10 Clear CLR 61 54     78%     29.98 29.98      
May 13 14:53 SW 10 10 Partly Cloudy SCT044 69 50     51%     29.98 29.98      
May 12 18:53 S 10 10 Mostly Cloudy FEW043 BKN050 62 52     70%     29.96 29.96      
May 12 04:53 SE 3 8 Light Rain SCT013 BKN018 OVC025 57 55     93%     29.91 29.91 0   0
May 11 23:28 5 10 Cloudy BKN010 BKN015 OVC027 59 57     93%     29.9        
May 11 21:53 SE 8 8 Cloudy SCT013 BKN018 OVC036 60 56     86%     29.87 29.87      
May 11 18:53 SE 9 9 Cloudy FEW011 SCT022 OVC026 60 55     83%     29.82 29.82      
May 11 17:53 SSE 13 10 Cloudy SCT020 BKN024 OVC031 61 54     78%     29.83 29.82      
May 11 09:53 SSE 16 9 Cloudy SCT027 OVC030 65 52     63%     29.87 29.87      
Jun 11 23:53 W 7 10 Cloudy OVC037 63 53     70%     29.99 29.98      
Jun 11 19:53 S 8 10 Partly Cloudy FEW023 SCT028 SCT035 64 54     70%     29.93 29.93      
Jun 11 14:53 SSW 18 10 Partly Cloudy FEW033 SCT038 71 53     53%   70 29.92 29.91      
Jun 11 12:53 SSE 10 10 Mostly Cloudy SCT028 BKN036 69 53     57%     29.92 29.92      
Jun 11 07:53 ESE 8 10 Cloudy BKN022 BKN030 OVC035 62 56     80%     29.89 29.89      
Jun 08 14:53 W 9 9 Mostly Clear FEW027 FEW250 72 58     61%   72 29.98 29.97      
Jun 07 22:53 3 7 Cloudy FEW013 OVC015 63 57     81%     29.98 29.98      
Jun 07 19:53 SSW 9 8 Cloudy SCT013 OVC016 63 57     81%     29.96 29.96      
Jun 07 08:59 SW 5 4 Fog/Mist SCT007 BKN010 OVC014 62 60     93%     29.95        
Jun 06 12:53 SW 7 10 Cloudy OVC013 66 59     78%     29.95 29.95      
Jun 06 00:53 S 5 10 Cloudy OVC012 63 58     84%     29.9 29.89